This is the latest recevied weather packets stored in our database for station/object SM6PGP-2. If no packets are shown the sender has not sent any weather packets the latest 1 day(s).
| Time | Temp. | Humidity | Pressure | Rain* | Wind** | Luminosity | Snow |
|---|---|---|---|---|---|---|---|
| 1777989368 | 11.67° C | - | - | - | 2.68 m/s, 279° | - | - |
| 1777989063 | 11.67° C | - | - | - | 1.79 m/s, 56° | - | - |
| 1777988758 | 11.67° C | - | - | - | 3.58 m/s, 274° | - | - |
| 1777988453 | 11.67° C | - | - | - | 3.13 m/s, 261° | - | - |
| 1777988148 | 11.67° C | - | - | - | 2.24 m/s, 238° | - | - |
| 1777987842 | 11.67° C | - | - | - | 4.92 m/s, 274° | - | - |
| 1777987537 | 11.67° C | - | - | - | 2.24 m/s, 31° | - | - |
| 1777987233 | 11.67° C | - | - | - | 1.34 m/s, 275° | - | - |
| 1777986927 | 11.67° C | - | - | - | 2.24 m/s, 315° | - | - |
| 1777986622 | 11.67° C | - | - | - | 2.24 m/s, 252° | - | - |
| 1777986316 | 11.11° C | - | - | - | 4.47 m/s, 324° | - | - |
| 1777986011 | 11.11° C | - | - | - | 3.58 m/s, 279° | - | - |
| 1777985707 | 11.11° C | - | - | - | 5.36 m/s, 261° | - | - |
| 1777985401 | 11.11° C | - | - | - | 2.68 m/s, 297° | - | - |
| 1777985096 | 11.11° C | - | - | - | 3.58 m/s, 252° | - | - |
| 1777984791 | 11.11° C | - | - | - | 2.24 m/s, 270° | - | - |
| 1777984485 | 11.11° C | - | - | - | 4.92 m/s, 238° | - | - |
| 1777984181 | 11.11° C | - | - | - | 4.47 m/s, 270° | - | - |
| 1777983875 | 11.11° C | - | - | - | 2.24 m/s, 261° | - | - |
| 1777983570 | 11.11° C | - | - | - | 2.24 m/s, 247° | - | - |
| 1777983265 | 11.11° C | - | - | - | 2.68 m/s, 292° | - | - |
| 1777982959 | 11.11° C | - | - | - | 2.24 m/s, 301° | - | - |
| 1777982655 | 11.11° C | - | - | - | 1.79 m/s, 274° | - | - |
| 1777982349 | 11.11° C | - | - | - | 3.58 m/s, 328° | - | - |
| 1777982044 | 11.67° C | - | - | - | 2.24 m/s, 261° | - | - |
* Rain since midnight (hover to see other rain measurements)
** Current wind speed in m/s (hover to see current wind gust speed)